Kurnell Observation History
Time Wind Speed Temp Pressure Rel. Hum Rain
05/09:30pm W 4-5 kts n/a n/a n/a n/a
05/09:00pm SSW 3-6 kts n/a n/a n/a n/a
05/08:30pm WSW 4-6 kts n/a n/a n/a n/a
05/08:00pm SSE 3-4 kts n/a n/a n/a n/a
05/07:30pm SSE 4-5 kts n/a n/a n/a n/a
05/07:00pm CALM 0 kts n/a n/a n/a n/a
05/06:30pm NE 3-4 kts n/a n/a n/a n/a
05/06:00pm NE 5 kts n/a n/a n/a n/a
05/05:30pm NE 5-6 kts n/a n/a n/a n/a
05/05:00pm NNE 7-8 kts n/a n/a n/a n/a
05/04:30pm NE 8-9 kts n/a n/a n/a n/a
05/04:00pm ENE 7-8 kts n/a n/a n/a n/a
05/03:30pm N 4-5 kts n/a n/a n/a n/a
05/03:00pm NNW 4-5 kts n/a n/a n/a n/a
05/02:30pm NW 4-5 kts n/a n/a n/a n/a
05/02:00pm NW 4 kts n/a n/a n/a n/a
05/01:30pm NNW 4 kts n/a n/a n/a n/a
05/01:00pm NW 5 kts n/a n/a n/a n/a
05/12:30pm NNW 6-7 kts n/a n/a n/a n/a
05/12:00pm NNW 6-7 kts n/a n/a n/a n/a
05/11:30am NW 7-8 kts n/a n/a n/a n/a
05/11:00am NW 8-9 kts n/a n/a n/a n/a
05/10:30am NW 9-10 kts n/a n/a n/a n/a
05/10:00am NW 9-11 kts n/a n/a n/a n/a
05/09:30am NW 9-10 kts n/a n/a n/a n/a
05/09:00am NW 9-10 kts n/a n/a n/a n/a
05/08:30am NW 7-8 kts n/a n/a n/a n/a
05/08:00am NW 8-9 kts n/a n/a n/a n/a
05/07:30am NW 8-9 kts n/a n/a n/a n/a
05/07:00am NW 9-10 kts n/a n/a n/a n/a
05/06:30am NW 8-10 kts n/a n/a n/a n/a
05/06:00am WNW 6-8 kts n/a n/a n/a n/a
05/05:30am NW 7-8 kts n/a n/a n/a n/a
05/05:00am N 7-8 kts n/a n/a n/a n/a
05/04:30am NW 6-7 kts n/a n/a n/a n/a
05/04:00am NW 6-7 kts n/a n/a n/a n/a
05/03:30am NNW 7-9 kts n/a n/a n/a n/a
05/03:00am NNW 7-9 kts n/a n/a n/a n/a
05/02:30am WNW 7 kts n/a n/a n/a n/a
05/02:00am WNW 6-7 kts n/a n/a n/a n/a
05/01:30am WNW 7-8 kts n/a n/a n/a n/a
05/01:00am WNW 7-8 kts n/a n/a n/a n/a
05/12:30am WNW 7-8 kts n/a n/a n/a n/a
05/12:00am WNW 6-7 kts n/a n/a n/a n/a
Time Wind Speed Temp Pressure Rel. Hum Rain
04/11:30pm W 6-8 kts n/a n/a n/a n/a
04/11:00pm WNW 6-7 kts n/a n/a n/a n/a
04/10:30pm W 7-8 kts n/a n/a n/a n/a
04/10:00pm W 6-8 kts n/a n/a n/a n/a
04/09:30pm W 8-9 kts n/a n/a n/a n/a
04/09:00pm WSW 6-7 kts n/a n/a n/a n/a
04/08:30pm SSW 5-7 kts n/a n/a n/a n/a
04/08:00pm S 6-8 kts n/a n/a n/a n/a
04/07:30pm S 7-9 kts n/a n/a n/a n/a
04/07:00pm S 7-10 kts n/a n/a n/a n/a
04/06:30pm SSW 9-12 kts n/a n/a n/a n/a
04/06:00pm S 8-12 kts n/a n/a n/a n/a
04/05:30pm S 11-15 kts n/a n/a n/a n/a
04/05:00pm SSW 10-12 kts n/a n/a n/a n/a
04/04:30pm SSW 12-16 kts n/a n/a n/a n/a
04/04:00pm SSW 11-16 kts n/a n/a n/a n/a
04/03:30pm SW 13-16 kts n/a n/a n/a n/a
04/03:00pm SSW 15-18 kts n/a n/a n/a n/a
04/02:30pm SW 14-18 kts n/a n/a n/a n/a
04/02:00pm SW 15-20 kts n/a n/a n/a n/a
04/01:30pm SW 15-21 kts n/a n/a n/a n/a
04/01:00pm SSW 16-23 kts n/a n/a n/a n/a
04/12:30pm SW 16-21 kts n/a n/a n/a n/a
04/12:00pm SSW 16-22 kts n/a n/a n/a n/a
04/11:30am SSW 17-23 kts n/a n/a n/a n/a
04/11:00am SW 15-21 kts n/a n/a n/a n/a
04/10:30am SW 17-22 kts n/a n/a n/a n/a
04/10:00am WSW 11-18 kts n/a n/a n/a n/a
04/09:30am W 11-15 kts n/a n/a n/a n/a
04/09:00am W 11-13 kts n/a n/a n/a n/a
04/08:30am W 11-13 kts n/a n/a n/a n/a
04/08:00am W 12-15 kts n/a n/a n/a n/a
04/07:30am W 11-14 kts n/a n/a n/a n/a
04/07:00am W 14-16 kts n/a n/a n/a n/a
04/06:30am WSW 12-15 kts n/a n/a n/a n/a
04/06:00am WSW 14-16 kts n/a n/a n/a n/a
04/05:30am W 14-17 kts n/a n/a n/a n/a
04/05:00am WSW 12-15 kts n/a n/a n/a n/a
04/04:30am WSW 13-16 kts n/a n/a n/a n/a
04/04:00am WSW 14-17 kts n/a n/a n/a n/a
04/03:30am W 13-15 kts n/a n/a n/a n/a
04/03:00am W 13-15 kts n/a n/a n/a n/a
04/02:30am W 12-15 kts n/a n/a n/a n/a
04/02:00am WSW 14-18 kts n/a n/a n/a n/a
04/01:30am WSW 14-19 kts n/a n/a n/a n/a
04/01:00am WSW 13-18 kts n/a n/a n/a n/a
04/12:30am SW 19-27 kts n/a n/a n/a n/a
04/12:25am SW 19-27 kts n/a n/a n/a n/a
04/12:00am WSW 14-18 kts n/a n/a n/a n/a
Time Wind Speed Temp Pressure Rel. Hum Rain
03/11:30pm WSW 13-20 kts n/a n/a n/a n/a
03/11:00pm SW 14-19 kts n/a n/a n/a n/a
03/10:30pm WSW 15-19 kts n/a n/a n/a n/a
03/10:00pm SW 15-20 kts n/a n/a n/a n/a
03/09:30pm WSW 15-18 kts n/a n/a n/a n/a
03/09:00pm WSW 16-23 kts n/a n/a n/a n/a
03/08:59pm WSW 16-26 kts n/a n/a n/a n/a
03/08:30pm SW 15-19 kts n/a n/a n/a n/a
03/08:01pm SSW 18-28 kts n/a n/a n/a n/a
03/08:00pm SSW 19-28 kts n/a n/a n/a n/a
03/07:57pm SSW 18-28 kts n/a n/a n/a n/a
03/07:30pm SSW 17-26 kts n/a n/a n/a n/a
03/07:24pm SSW 18-28 kts n/a n/a n/a n/a
03/07:00pm SSW 18-24 kts n/a n/a n/a n/a
03/06:30pm SSW 18-25 kts n/a n/a n/a n/a
03/06:00pm SSW 17-22 kts n/a n/a n/a n/a
03/05:37pm SSW 15-26 kts n/a n/a n/a n/a
03/05:30pm SSW 16-21 kts n/a n/a n/a n/a
03/05:00pm S 17-26 kts n/a n/a n/a n/a
03/04:30pm SSW 16-21 kts n/a n/a n/a n/a
03/04:00pm SSW 17-25 kts n/a n/a n/a n/a
03/03:30pm SSW 17-24 kts n/a n/a n/a n/a
03/03:21pm SSW 18-28 kts n/a n/a n/a n/a
03/03:00pm SSW 20-27 kts n/a n/a n/a n/a
03/02:31pm SSW 20-30 kts n/a n/a n/a n/a
03/02:30pm SSW 21-30 kts n/a n/a n/a n/a
03/02:10pm SSW 18-29 kts n/a n/a n/a n/a
03/02:00pm SSW 16-22 kts n/a n/a n/a n/a
03/01:30pm SSW 17-23 kts n/a n/a n/a n/a
03/01:00pm SSW 18-26 kts n/a n/a n/a n/a
03/12:30pm SW 18-27 kts n/a n/a n/a n/a
03/12:00pm SW 17-28 kts n/a n/a n/a n/a
03/11:38am SW 17-29 kts n/a n/a n/a n/a
03/11:30am SW 16-21 kts n/a n/a n/a n/a
03/11:00am SW 18-28 kts n/a n/a n/a n/a
03/10:55am SW 18-28 kts n/a n/a n/a n/a
03/10:30am WSW 15-18 kts n/a n/a n/a n/a
03/10:00am WSW 16-20 kts n/a n/a n/a n/a
03/09:30am WSW 15-22 kts n/a n/a n/a n/a
03/09:00am WSW 19-24 kts n/a n/a n/a n/a
03/08:30am WSW 19-26 kts n/a n/a n/a n/a
03/08:00am W 17-21 kts n/a n/a n/a n/a
03/07:30am W 15-20 kts n/a n/a n/a n/a
03/07:00am W 15-18 kts n/a n/a n/a n/a
03/06:30am WNW 11-14 kts n/a n/a n/a n/a
03/06:00am WNW 16-19 kts n/a n/a n/a n/a
03/05:30am WNW 19-23 kts n/a n/a n/a n/a
03/05:00am W 18-22 kts n/a n/a n/a n/a
03/04:30am WNW 16-20 kts n/a n/a n/a n/a
03/04:00am WNW 15-18 kts n/a n/a n/a n/a
03/03:30am NW 14-16 kts n/a n/a n/a n/a
03/03:00am NW 15-18 kts n/a n/a n/a n/a
03/02:30am WNW 15-17 kts n/a n/a n/a n/a
03/02:00am WNW 15-17 kts n/a n/a n/a n/a
03/01:30am WNW 15-17 kts n/a n/a n/a n/a
03/01:00am WNW 14-16 kts n/a n/a n/a n/a
03/12:30am WNW 14-16 kts n/a n/a n/a n/a
03/12:00am WNW 13-15 kts n/a n/a n/a n/a